Location: Bluff Heights
(33.7692°N, 118.1592°W)
Time: 03:38:44
(UTC+00:00)

Vanguard 1 Rocket - Pass Details

Date: 26 September 2021
Orbit: 650 x 4225 km, 34.3° (Epoch: 24 October)

Event Time Altitude Azimuth Distance (km) Brightness Sun altitude
Exits shadow 09:58:37 34° 153° (SSE) 3,841 10.3 -44.9°
Drops below altitude 10° 10:09:13 10° 136° (SE) 6,454 11.7 -43.1°
Sets 10:15:30 0° 132° (SE) 7,918 12.3 -42.0°
